Notices

What's New in latest Release from April 7th, 2021:

- Updated Glossary, including Speed of Maximum Gust, and Total Hourly Precipitation

- Updated national and regional climate services offices contacts and prices information

- Addition of station inventory lists for 1981-2010, 1971-2000, and 1961-1990 Normals.

If you haven't already, please take our survey and provide feedback about our website: https://eccc.sondage-survey.ca/f/LanguageSelection.aspx?s=442ca660-fcf1-47c0-95a9-59707d6fd709

Hourly Data Report for January 22, 2004

TORONTO CITY
ONTARIO

43°40'00.000" N
79°24'00.000" W
112.50 m
6158355
71508
XTO

Download Data

Hourly Data (January 2004)
Hourly Data Report for January 22, 2004
TIME
LST
Temp Definition
°C
Dew Point Definition
°C
Rel Hum Definition
%
Precip. Amount Definition
mm

Wind Dir Definition
10's deg

Wind Spd Definition
km/h
Visibility Definition
km
Stn Press Definition
kPa
Hmdx Definition


Wind Chill Definition


Weather Definition


00:00 -2.1 -3.8 88   LegendMM LegendMM LegendMM 99.12     LegendNANA
01:00 -2.4 -4.5 85   LegendMM LegendMM LegendMM 99.02     LegendNANA
02:00 -2.4 -4.3 87   LegendMM LegendMM LegendMM 98.93     LegendNANA
03:00 -1.4 -3.7 84   LegendMM LegendMM LegendMM 98.78     LegendNANA
04:00 -0.4 -3.0 83   LegendMM LegendMM LegendMM 98.61     LegendNANA
05:00 -0.9 -2.4 90   LegendMM LegendMM LegendMM 98.56     LegendNANA
06:00 -2.0 -6.7 70   LegendMM LegendMM LegendMM 98.56     LegendNANA
07:00 -3.6 -8.9 67   LegendMM LegendMM LegendMM 98.64     LegendNANA
08:00 -4.7 -6.0 91   LegendMM LegendMM LegendMM 98.76     LegendNANA
09:00 -6.2 -7.4 91   LegendMM LegendMM LegendMM 98.94     LegendNANA
10:00 -6.4 -12.4 62   LegendMM LegendMM LegendMM 99.07     LegendNANA
11:00 -5.9 -14.1 52   LegendMM LegendMM LegendMM 99.17     LegendNANA
12:00 -7.4 -10.5 78   LegendMM LegendMM LegendMM 99.24     LegendNANA
13:00 -6.4 -14.3 53   LegendMM LegendMM LegendMM 99.26     LegendNANA
14:00 -6.9 -15.4 51   LegendMM LegendMM LegendMM 99.31     LegendNANA
15:00 -7.9 -16.1 52   LegendMM LegendMM LegendMM 99.41     LegendNANA
16:00 -8.8 -17.6 49   LegendMM LegendMM LegendMM 99.50     LegendNANA
17:00 -9.5 -17.2 53   LegendMM LegendMM LegendMM 99.61     LegendNANA
18:00 -10.2 -17.0 57   LegendMM LegendMM LegendMM 99.69     LegendNANA
19:00 -10.8 -17.1 60   LegendMM LegendMM LegendMM 99.78     LegendNANA
20:00 -11.2 -15.9 68   LegendMM LegendMM LegendMM 99.85     LegendNANA
21:00 -11.4 -16.1 68   LegendMM LegendMM LegendMM 99.86     LegendNANA
22:00 -11.7 -15.5 73   LegendMM LegendMM LegendMM 99.90     LegendNANA
23:00 -12.0 -14.9 79   LegendMM LegendMM LegendMM 99.91     LegendNANA

Notes on Data Quality.

Legend

  • E = Estimated
  • M = Missing
  • NA = Not Available*
  • [empty] = Indicates an unobserved value
Date modified: